Weather History for Winona, MN

Change the Weather History Date:

Monday, February 18, 2013

  Actual Average Record
Temperature  
Mean Temperature 26 °F -  
Max Temperature 37 °F 30 °F 51 °F (1997)
Min Temperature 14 °F 15 °F -16 °F (2006)
Degree Days  
Heating Degree Days 40    
Moisture  
Dew Point 20 °F    
Average Humidity 74    
Maximum Humidity 87    
Minimum Humidity 64    
Precipitation  
Precipitation 0.00 in - - ()
Sea Level Pressure  
Sea Level Pressure 29.62 in    
Wind  
Wind Speed 9 mph (WSW)    
Max Wind Speed 20 mph    
Max Gust Speed 28 mph    
Visibility 9 miles    
Events Snow    
Averages and records for this station are not official NWS values.
T = Trace of Precipitation, MM = Missing Value Source: NWS Daily Summary

Daily Weather History Graph

Daily Weather History Graph

Search for Another Location

Airport:

Trip Planner

Search our weather history database for the weather conditions in past years. The results will help you decide how hot, cold, wet, or windy it might be!

Date:

Astronomy

Feb. 18, 2013 Rise Set
Actual Time 7:01 AM CST 5:40 PM CST
Civil Twilight 6:31 AM CST 6:10 PM CST
Nautical Twilight 5:58 AM CST 6:44 PM CST
Astronomical Twilight 5:24 AM CST 7:17 PM CST
Moon 11:20 AM CST (2/18) 1:47 AM CST (2/18)
Length of Visible Light 11h 38m
Length of Day
10h 39m
First Quarter, 58% of the Moon is Illuminated
Feb 18
First Quarter
Feb 25
Full
Mar 4
Last Quarter
Mar 11
New
Mar 19
First Quarter

Hourly Weather History & Observations

Time (CST) Temp. Windchill Dew Point Humidity Pressure Visibility Wind Dir Wind Speed Gust Speed Precip Events Conditions
12:15 AM 28.4 °F 19.1 °F 19.4 °F 69% 29.73 in 10.0 mi SE 10.4 mph - N/A   Clear
12:36 AM 28.4 °F 19.1 °F 19.4 °F 69% 29.71 in 10.0 mi SE 10.4 mph - N/A   Clear
12:55 AM 30.2 °F 21.9 °F 19.4 °F 64% 29.70 in 10.0 mi SE 9.2 mph - N/A   Clear
1:15 AM 30.2 °F 21.9 °F 19.4 °F 64% 29.70 in 10.0 mi SE 9.2 mph - N/A   Clear
1:36 AM 30.2 °F 23.4 °F 19.4 °F 64% 29.69 in 10.0 mi SSE 6.9 mph - N/A   Clear
1:55 AM 30.2 °F 23.4 °F 19.4 °F 64% 29.67 in 10.0 mi SE 6.9 mph - N/A   Clear
2:15 AM 30.2 °F 23.4 °F 21.2 °F 69% 29.66 in 10.0 mi SSE 6.9 mph - N/A   Clear
2:36 AM 30.2 °F 24.3 °F 21.2 °F 69% 29.65 in 10.0 mi SE 5.8 mph - N/A   Clear
2:55 AM 30.2 °F 22.6 °F 21.2 °F 69% 29.65 in 10.0 mi SE 8.1 mph - N/A   Clear
3:15 AM 30.2 °F 25.4 °F 21.2 °F 69% 29.64 in 10.0 mi SE 4.6 mph - N/A   Clear
3:36 AM 30.2 °F 26.7 °F 21.2 °F 69% 29.63 in 10.0 mi SE 3.5 mph - N/A   Clear
3:55 AM 28.4 °F 23.3 °F 21.2 °F 74% 29.63 in 10.0 mi SSE 4.6 mph - N/A   Clear
4:15 AM 30.2 °F 23.4 °F 21.2 °F 69% 29.62 in 10.0 mi SSE 6.9 mph - N/A   Clear
4:36 AM 30.2 °F 23.4 °F 21.2 °F 69% 29.61 in 10.0 mi SSE 6.9 mph - N/A   Clear
4:55 AM 30.2 °F 23.4 °F 23.0 °F 75% 29.61 in 10.0 mi SSE 6.9 mph - N/A   Clear
5:15 AM 30.2 °F 24.3 °F 21.2 °F 69% 29.60 in 10.0 mi SE 5.8 mph - N/A   Clear
5:35 AM 30.2 °F 25.4 °F 23.0 °F 75% 29.59 in 10.0 mi SSE 4.6 mph - N/A   Clear
5:55 AM 30.2 °F 25.4 °F 21.2 °F 69% 29.58 in 10.0 mi SE 4.6 mph - N/A   Clear
6:16 AM 30.2 °F 26.7 °F 23.0 °F 75% 29.57 in 10.0 mi SE 3.5 mph - N/A   Clear
6:35 AM 30.2 °F 25.4 °F 23.0 °F 75% 29.58 in 10.0 mi ESE 4.6 mph - N/A   Clear
6:55 AM 28.4 °F 24.6 °F 21.2 °F 74% 29.57 in 10.0 mi ESE 3.5 mph - N/A   Clear
7:16 AM 28.4 °F 24.6 °F 23.0 °F 80% 29.59 in 10.0 mi SE 3.5 mph - N/A   Clear
7:35 AM 28.4 °F 23.3 °F 23.0 °F 80% 29.59 in 10.0 mi SE 4.6 mph - N/A   Clear
7:55 AM 28.4 °F 24.6 °F 23.0 °F 80% 29.59 in 10.0 mi ESE 3.5 mph - N/A   Clear
8:16 AM 28.4 °F - 23.0 °F 80% 29.57 in 10.0 mi Calm Calm - N/A   Clear
8:35 AM 30.2 °F 25.4 °F 23.0 °F 75% 29.57 in 10.0 mi SSE 4.6 mph - N/A   Clear
8:55 AM 32.0 °F 28.7 °F 26.6 °F 80% 29.56 in 10.0 mi SE 3.5 mph - N/A   Clear
9:16 AM 32.0 °F 28.7 °F 24.8 °F 75% 29.56 in 10.0 mi SE 3.5 mph - N/A   Clear
9:35 AM 33.8 °F 27.7 °F 26.6 °F 75% 29.56 in 10.0 mi SSW 6.9 mph - N/A   Clear
9:55 AM 33.8 °F 29.6 °F 26.6 °F 75% 29.57 in 10.0 mi SW 4.6 mph - N/A   Clear
10:15 AM 33.8 °F 28.6 °F 24.8 °F 70% 29.56 in 10.0 mi West 5.8 mph - N/A   Clear
10:35 AM 35.6 °F 31.7 °F 26.6 °F 70% 29.55 in 10.0 mi WSW 4.6 mph - N/A   Clear
10:56 AM 35.6 °F 29.9 °F 26.6 °F 70% 29.54 in 10.0 mi NW 6.9 mph - N/A   Scattered Clouds
11:15 AM 35.6 °F 32.8 °F 26.6 °F 70% 29.54 in 10.0 mi WNW 3.5 mph - N/A   Scattered Clouds
11:35 AM 37.4 °F 34.9 °F 26.6 °F 65% 29.54 in 10.0 mi WNW 3.5 mph - N/A   Scattered Clouds
11:56 AM 37.4 °F 33.8 °F 26.6 °F 65% 29.54 in 10.0 mi West 4.6 mph - N/A   Overcast
12:15 PM 37.4 °F 32.8 °F 28.4 °F 70% 29.53 in 10.0 mi NW 5.8 mph - N/A   Overcast
12:35 PM 37.4 °F 32.8 °F 28.4 °F 70% 29.53 in 10.0 mi NW 5.8 mph - N/A   Overcast
12:55 PM 37.4 °F 33.8 °F 28.4 °F 70% 29.53 in 10.0 mi West 4.6 mph - N/A   Overcast
1:16 PM 37.4 °F 33.8 °F 30.2 °F 75% 29.52 in 10.0 mi WNW 4.6 mph - N/A   Overcast
1:35 PM 37.4 °F 32.1 °F 30.2 °F 75% 29.52 in 10.0 mi WNW 6.9 mph - N/A   Overcast
1:55 PM 33.8 °F 24.3 °F 30.2 °F 87% 29.54 in 7.0 mi WNW 13.8 mph - N/A   Overcast
2:16 PM 33.8 °F 27.0 °F 30.2 °F 87% 29.55 in 10.0 mi WNW 8.1 mph - N/A   Overcast
2:35 PM 33.8 °F 25.3 °F 30.2 °F 87% 29.56 in 7.0 mi WNW 11.5 mph 16.1 mph N/A   Overcast
2:56 PM 32.0 °F 22.5 °F 28.4 °F 87% 29.58 in 4.0 mi West 12.7 mph 17.3 mph N/A   Haze
3:15 PM 30.2 °F 20.2 °F 26.6 °F 86% 29.59 in 5.0 mi West 12.7 mph 18.4 mph N/A Snow Light Snow
3:35 PM 30.2 °F 20.2 °F 26.6 °F 86% 29.60 in 1.2 mi WNW 12.7 mph 23.0 mph N/A Snow Light Snow
3:56 PM 28.4 °F 17.5 °F 23.0 °F 80% 29.60 in 1.5 mi WNW 13.8 mph 20.7 mph N/A Snow Light Snow
4:15 PM 28.4 °F 17.5 °F 23.0 °F 80% 29.61 in 1.2 mi WNW 13.8 mph 18.4 mph N/A Snow Light Snow
4:35 PM 28.4 °F 18.0 °F 23.0 °F 80% 29.61 in 1.8 mi WNW 12.7 mph 25.3 mph N/A Snow Light Snow
4:56 PM 26.6 °F 14.7 °F 19.4 °F 74% 29.62 in 5.0 mi WNW 15.0 mph 23.0 mph N/A Snow Light Snow
5:15 PM 24.8 °F 14.0 °F 19.4 °F 80% 29.62 in 10.0 mi WNW 11.5 mph 18.4 mph N/A   Overcast
5:35 PM 23.0 °F 10.1 °F 15.8 °F 74% 29.62 in 10.0 mi WNW 15.0 mph 23.0 mph N/A   Overcast
5:56 PM 21.2 °F 7.8 °F 14.0 °F 74% 29.64 in 10.0 mi WNW 15.0 mph 25.3 mph N/A   Overcast
6:15 PM 21.2 °F 7.3 °F 14.0 °F 74% 29.65 in 10.0 mi WNW 16.1 mph 23.0 mph N/A   Overcast
6:35 PM 21.2 °F 8.3 °F 14.0 °F 74% 29.67 in 10.0 mi WNW 13.8 mph 20.7 mph N/A   Overcast
6:56 PM 19.4 °F 5.0 °F 12.2 °F 74% 29.67 in 10.0 mi WNW 16.1 mph 20.7 mph N/A   Overcast
7:15 PM 19.4 °F 6.0 °F 12.2 °F 74% 29.68 in 10.0 mi WNW 13.8 mph 18.4 mph N/A   Overcast
7:35 PM 19.4 °F 6.0 °F 10.4 °F 68% 29.68 in 10.0 mi WNW 13.8 mph 25.3 mph N/A   Overcast
7:56 PM 19.4 °F 6.0 °F 10.4 °F 68% 29.67 in 10.0 mi WNW 13.8 mph 24.2 mph N/A   Overcast
8:15 PM 19.4 °F 5.5 °F 12.2 °F 74% 29.67 in 10.0 mi WNW 15.0 mph 25.3 mph N/A   Overcast
8:35 PM 19.4 °F 5.5 °F 12.2 °F 74% 29.67 in 10.0 mi WNW 15.0 mph 23.0 mph N/A   Overcast
8:56 PM 17.6 °F 3.2 °F 10.4 °F 73% 29.67 in 10.0 mi WNW 15.0 mph 23.0 mph N/A   Overcast
9:15 PM 17.6 °F 2.7 °F 10.4 °F 73% 29.66 in 10.0 mi WNW 16.1 mph 23.0 mph N/A Snow Light Snow
9:35 PM 17.6 °F 3.2 °F 10.4 °F 73% 29.67 in 7.0 mi WNW 15.0 mph 23.0 mph N/A Snow Light Snow
9:56 PM 15.8 °F 3.4 °F 10.4 °F 79% 29.69 in 5.0 mi WNW 10.4 mph 25.3 mph N/A Snow Light Snow
10:15 PM 15.8 °F 0.3 °F 10.4 °F 79% 29.69 in 7.0 mi NW 16.1 mph 27.6 mph N/A Snow Light Snow
10:35 PM 15.8 °F -0.6 °F 10.4 °F 79% 29.69 in 7.0 mi WNW 18.4 mph - N/A Snow Light Snow
10:56 PM 14.0 °F -3.4 °F 8.6 °F 79% 29.70 in 5.0 mi WNW 19.6 mph 25.3 mph N/A Snow Light Snow
11:15 PM 14.0 °F -2.0 °F 8.6 °F 79% 29.71 in 5.0 mi WNW 16.1 mph 24.2 mph N/A Snow Light Snow
11:35 PM 14.0 °F -0.8 °F 8.6 °F 79% 29.72 in 4.0 mi WNW 13.8 mph 23.0 mph N/A Snow Light Snow
11:56 PM 14.0 °F -0.2 °F 8.6 °F 79% 29.72 in 1.8 mi WNW 12.7 mph 21.9 mph N/A Snow Light Snow